SCP
0 0 0 0 0 0 0 0 0 0 0 0 0 0 -0 0 0 0 0 0 0 -0 0 -0 -0 -0 -0 -0 -0 -0 -0 -0 -0 -0 -0 -0 -0 -0 -0 -0 -0 -0 -0 -0 -0 -0 -0 -0 0
0 0 0 0 0 0 0 0 0 0 0 0 0 0 0 0 0 0 0 -0 0 0 0 0 -0 -0 -0 -0 -0 -0 -0 -0 -0 -0 -0 -0 -0 -0 -0 -0 -0 -0 -0 -0 -0 -0 -0 -0 -0
0 0 0 0 0 0 0 0 0 0 0 0 0 0 0 0 0 0 0 0 0 0 0 0 -0 -0 -0 -0 -0 -0 -0 -0 -0 -0 -0 -0 -0 -0 -0 -0 -0 -0 -0 -0 -0 -0 -0 -0 -0
0 0 0 0 0 0 0 0 0 0 0 0 0 0 0 0 0 0 0 -0 0 0 0 0 -0 -0 -0 -0 -0 -0 -0 -0 -0 -0 -0 -0 -0 -0 -0 -0 -0 -0 -0 -0 -0 0 0 0 0
0 0 0 0 0 0 0 0 0 0 0 0 0 0 0 0 0 0 -0 -0 -0 0 0 0 0 -0 -0 -0 -0 -0 -0 -0 -0 -0 -0 -0 -0 -0 -0 -0 0 0 0 0 0 0 0 0 0
0 0 0 0 0 0 0 0 0 0 0 0 0 0 0 0 0 0 0 0 -0 -0 0 0 0 0 0 0 0 0 0 0 0 0 0 -0 -0 -0 -0 0 0 0 0 0 0 0 0 0 0
0 0 0 0 0 0 0 0 0 0 0 0 0 0 0 0 0 -0 -0 0 0 0 0 0 0 0 0 0 0 0 0 0 0 0 0 0 0 0 0 0 0 0 0 0 0 0 0 0 0
0 0 0 0 0 0 0 0 0 0 0 0 0 0 0 0 0 0 0 0 0 0 0 0 0 0 0 0 0 0 0 0 0 0 0 0 0 0 0 0 0 0 0 0 0 0 0 0 0
0 0 0 0 0 0 0 0 0 0 0 0 0 0 0 0 0 0 0 0 0 0 0 0 0 0 0 0 0 0 0 0 0 0 0 0 0 0 0 0 0 0 0 0 0 0 0 0 0
0 0 0 0 0 0 0 0 0 0 0 0 0 0 0 0 0 0 0 0 0 0 0 0 0 0 0 0 0 0 0 0 0 0 0 0 0 0 0 0 0 0 0 0 0 0 0 0 0
0 0 0 0 0 0 0 0 0 0 0 0 0 0 0 0 0 0 0 0 0 0 0 0 0 0 0 0 0 0 0 0 0 0 0 0 0 0 0 0 0 0 0 0 0 0 0 0 0
0 0 0 0 0 0 0 0 0 0 0 0 0 0 0 0 0 0 0 0 0 0 0 0 0 0 0 0 0 0 0 0 0 0 0 0 0 0 0 0 0 0 0 0 0 0 0 0 0
0 0 0 0 0 0 0 0 0 0 0 0 0 0 0 0 0 0 0 0 0 0 0 0 0 0 0 0 0 0 0 0 0 0 0 0 0 0 0 0 0 0 0 0 0 0 0 0 0
0 0 0 0 0 0 0 0 0 -0 0 0 0 0 0 0 0 0 0 0 0 0 0 0 0 0 0 0 0 0 0 0 0 0 0 0 0 0 0 0 0 0 0 0 0 0 0 0 0
0 0 0 0 0 0 0 -0 0 -0 0 0 0 0 0 0 0 0 0 0 0 0 0 0 0 0 0 0 0 0 0 0 0 0 0 0 0 0 0 0 0 0 0 0 0 0 0 0 0
0 0 0 0 0 0 0 0 0 0 0 0 0 0 0 0 0 0 0 0 0 0 0 0 0 0 0 0 0 0 0 0 0 0 0 0 0 0 0 0 0 0 0 0 0 0 0 0 0
0 0 0 0 0 0 0 0 0 0 0 0 0 0 0 0 0 0 0 0 0 0 0 0 0 0 0 0 0 0 0 0 0 0 0 0 0 0 0 0 0 0 0 0 0 0 0 0 0
0 0 0 0 0 0 0 0 0 0 0 0 0 -0 -0 0 0 0 0 0 0 0 0 0 0 0 0 0 0 0 0 0 0 0 0 0 0 0 0 0 0 0 0 0 0 0 0 0 0
0 0 0 0 0 0 0 0 0 0 -0 0 0 0 0 0 0 0 0 0 0 0 0 0 0 0 0 0 0 0 0 0 0 0 0 0 0 0 0 0 0 0 0 0 0 0 0 0 0
0 0 0 0 0 0 0 -0 0 0 0 0 0 0 0 0 0 0 0 0 0 0 0 0 0 0 0 0 0 0 0 0 0 0 0 0 0 0 0 0 0 0 0 0 0 0 0 0 0
0 0 0 0 0 0 0 -0 0 0 0 0 0 0 0 0 0 0 0 0 0 0 0 0 0 0 0 0 0 0 0 0 0 0 0 0 0 0 0 0 0 0 0 0 0 0 0 0 0
0 0 0 0 0 0 0 -0 0 0 0 0 0 0 0 0 0 0 0 0 0 0 0 0 0 0 0 0 0 0 0 0 0 0 0 0 0 0 0 0 0 0 0 0 0 0 0 0 0
0 0 0 0 0 0 0 0 0 0 0 0 0 0 0 0 0 0 0 0 0 0 0 0 0 0 0 0 0 0 0 0 0 0 0 0 0 0 0 0 0 0 0 0 0 0 0 0 0
0 0 0 0 0 0 0 0 -0 0 0 0 0 0 0 0 0 0 0 0 0 0 0 0 0 0 0 0 0 0 0 0 0 0 0 0 0 0 0 0 0 0 0 0 0 0 0 0 0
0 0 0 0 0 0 0 0 0 0 0 0 0 0 0 0 -0 -0 -0 0 0 0 0 0 0 0 0 0 0 0 0 0 0 0 0 0 0 0 0 0 0 0 0 0 0 0 0 0 0
0 0 0 0 0 0 0 0 0 0 0 0 0 0 0 0 -0 -0 0 0 0 0 0 0 0 0 0 0 0 0 0 0 0 0 0 0 0 0 0 0 0 0 0 0 0 0 0 0 0
0 0 0 0 0 0 0 0 0 0 0 0 0 0 0 0 0 0 0 0 0 0 0 0 0 0 0 0 0 0 0 0 0 0 0 0 0 0 0 0 0 0 0 0 0 0 0 0 0
0 0 0 0 0 0 0 0 0 0 0 0 0 0 0 0 0 -0 -0 0 0 0 0 0 0 0 0 0 0 0 0 0 0 0 0 0 0 0 0 0 0 0 0 0 0 0 0 0 0
0 0 0 0 0 0 0 0 0 0 0 0 0 0 0 0 0 -0 -0 0 0 0 0 0 0 0 0 0 0 0 0 0 0 0 0 0 0 0 0 0 0 0 0 0 0 0 0 0 0
0 0 0 0 0 0 0 0 0 0 0 0 0 0 0 -0 0 0 0 0 0 0 0 0 0 0 0 0 0 0 0 0 0 0 0 0 0 0 0 0 0 0 0 0 0 0 0 0 0
Wind_Speed_500mb
10 8 5 4 7 9 7 11 5 5 3 5 12 10 16 8 12 10 6 22 21 33 35 33 32 30 29 32 31 27 26 25 24 20 23 21 19 19 19 17 19 18 17 17 12 7 10 10 10
12 7 3 3 8 4 10 9 12 11 4 13 11 7 4 11 14 7 15 23 22 26 33 34 33 32 34 33 31 31 29 28 28 29 26 24 23 22 19 18 17 18 19 20 16 13 13 13 13
11 7 3 8 6 9 9 10 11 5 11 9 6 11 7 8 17 12 20 24 25 28 34 36 35 35 35 34 33 32 33 33 30 24 24 25 22 20 19 18 19 20 22 22 20 19 19 20 20
9 5 6 7 12 14 14 13 11 6 8 15 10 9 10 18 7 15 25 23 29 32 38 38 38 38 37 36 34 34 32 32 27 22 19 19 16 15 15 15 16 17 18 19 19 19 20 21 22
11 3 4 2 11 13 11 16 20 11 5 12 16 9 11 15 30 19 16 21 27 34 40 41 40 39 38 38 36 32 32 25 22 18 17 16 15 13 13 12 13 14 15 15 14 14 13 13 15
4 4 4 7 10 11 14 16 17 11 13 7 10 7 13 21 26 25 23 22 27 34 41 44 42 40 39 38 35 35 30 27 25 24 21 18 14 12 10 8 8 7 7 6 5 5 5 6 9
8 7 8 7 10 11 9 13 11 12 10 17 10 7 12 19 25 26 25 27 30 36 44 47 46 44 42 40 37 34 30 28 25 23 22 20 18 16 13 12 11 9 7 5 4 4 6 8 10
2 8 4 9 7 11 6 13 6 21 19 13 21 12 12 7 24 30 31 31 35 40 46 49 49 49 47 45 43 38 34 32 29 26 23 19 16 14 13 12 11 9 7 5 5 7 9 10 13
5 5 6 10 10 9 3 6 8 11 15 17 20 38 27 21 21 35 40 42 45 47 50 54 55 53 51 50 48 45 41 38 35 33 30 25 20 17 14 12 10 9 9 8 8 9 12 14 17
8 6 16 13 8 7 7 11 25 10 17 19 35 46 47 45 40 43 48 49 50 52 52 57 60 59 58 57 55 51 47 44 41 40 36 31 26 22 18 15 14 14 14 14 15 15 16 17 18
12 13 11 19 28 19 10 12 21 11 16 42 45 54 52 55 55 56 57 58 55 52 57 58 60 62 64 64 62 58 54 50 47 45 42 37 32 26 22 19 18 17 18 17 19 20 21 21 23
7 28 25 16 20 14 10 16 12 30 75 66 57 48 49 54 61 66 67 64 60 59 59 62 62 64 66 67 68 64 62 57 54 52 48 43 37 32 28 25 23 22 22 22 21 21 23 25 27
10 11 33 51 44 45 40 44 25 49 92 77 67 64 64 62 65 66 65 65 65 68 64 65 66 68 69 71 71 70 67 62 58 58 54 49 44 38 33 29 27 26 25 25 26 25 24 23 25
7 19 31 29 35 31 15 38 5 74 70 63 49 48 57 69 73 71 72 74 74 72 72 69 71 71 73 75 75 76 72 66 65 63 59 54 48 43 38 35 32 31 29 28 28 28 27 27 29
13 16 18 16 22 18 26 24 23 85 66 61 61 60 58 59 58 71 76 81 79 77 75 75 75 77 79 79 79 78 76 73 72 69 65 60 54 49 45 41 38 35 32 31 30 28 29 29 29
8 1 10 2 14 7 24 27 37 50 46 57 58 58 58 62 68 73 75 80 80 81 82 78 79 83 86 85 83 81 81 78 76 74 71 66 60 56 52 48 44 42 38 35 34 31 31 32 32
5 11 16 24 31 10 16 19 24 16 25 47 54 65 77 88 87 83 79 83 83 79 80 81 83 86 88 90 88 84 82 81 80 77 74 69 65 61 57 55 51 46 42 37 34 32 32 33 34
17 11 12 13 11 8 11 29 24 70 26 55 75 88 100 104 109 96 90 87 87 83 81 79 84 88 91 93 90 88 84 83 81 80 79 74 71 66 64 60 56 52 46 41 38 35 34 35 35
8 13 16 18 16 5 19 30 33 52 58 53 70 88 100 106 118 111 101 91 90 80 72 83 89 92 95 99 97 96 96 90 87 85 82 79 76 72 69 65 62 57 51 45 42 38 35 34 34
18 31 33 34 37 10 33 45 33 24 40 78 79 76 87 96 99 96 86 78 77 75 72 75 84 92 96 99 95 99 95 94 88 87 86 84 81 77 73 70 66 61 56 52 46 40 35 34 31
20 16 35 34 12 11 20 38 29 25 49 74 92 85 87 96 99 96 86 75 70 69 65 67 74 82 89 95 99 99 96 94 93 94 92 90 86 81 77 72 69 65 61 57 51 44 37 32 29
39 26 29 21 5 16 6 35 12 17 30 21 59 78 82 89 83 82 81 75 63 59 59 66 73 78 83 92 97 100 101 100 101 92 89 91 89 84 79 75 71 68 65 62 55 48 40 33 29
22 7 12 4 7 10 6 8 2 9 14 28 27 60 69 68 70 65 76 67 57 51 51 57 65 73 77 88 94 95 99 96 89 89 92 91 90 86 83 79 76 73 69 64 58 51 43 36 32
3 6 5 7 6 15 23 18 17 11 15 10 13 50 62 57 57 68 62 62 45 44 49 52 60 65 71 81 89 95 95 93 93 95 94 92 91 90 87 84 81 77 74 68 62 55 49 41 36
8 9 8 7 2 22 13 11 37 27 16 16 27 50 58 68 71 69 69 66 46 49 48 53 58 63 67 75 85 92 91 90 92 94 92 87 90 95 93 90 86 82 78 73 68 63 55 47 42
15 20 12 14 20 37 15 21 37 17 19 22 19 26 44 55 63 49 40 49 46 43 47 47 52 58 66 72 78 84 88 93 96 99 97 91 86 87 89 89 84 82 80 77 73 67 61 54 49
8 11 14 9 2 4 26 35 33 12 13 5 12 26 50 43 42 39 30 33 33 31 34 38 44 48 61 73 76 81 89 96 100 100 98 94 89 85 83 85 83 82 82 81 77 73 68 61 54
14 1 4 3 8 20 17 29 32 34 33 19 13 14 32 32 31 41 38 27 19 18 20 27 41 47 56 73 80 85 94 100 99 99 101 99 92 90 87 85 83 85 85 84 82 77 72 68 62
1 8 10 2 11 31 36 25 54 41 17 18 14 23 26 43 74 66 29 23 22 36 47 52 58 58 64 71 76 91 100 102 104 101 102 102 97 93 92 89 86 86 88 88 85 82 77 73 66
3 11 15 19 24 23 32 35 45 59 26 19 45 66 78 88 64 54 73 71 69 76 64 73 63 63 78 89 91 98 102 105 104 105 108 107 105 99 95 92 90 88 91 91 90 87 84 79 73
Wind_Direction_500mb
205 221 263 300 43 60 267 261 250 245 242 194 154 169 195 186 168 209 195 177 189 186 191 190 193 198 196 201 203 196 202 207 206 195 212 210 214 205 208 201 204 202 212 222 233 247 228 222 223
205 210 235 93 90 39 271 258 236 224 226 151 148 148 217 237 225 241 181 182 187 193 194 193 191 194 195 200 204 204 204 201 213 213 219 216 218 229 225 217 219 223 227 233 241 245 253 257 256
193 196 214 97 121 193 224 231 239 245 189 184 213 223 238 239 234 225 209 201 202 202 199 196 196 196 200 203 206 208 212 220 224 227 220 228 235 239 239 235 233 240 251 263 266 266 264 264 265
175 179 60 99 234 252 214 253 216 185 214 227 226 250 242 225 231 225 229 213 214 204 200 201 199 200 204 207 212 212 217 225 233 232 233 236 237 238 237 239 243 251 259 263 268 271 271 269 267
179 156 63 270 256 265 247 255 202 184 215 223 199 256 244 240 232 234 213 218 213 208 204 204 207 207 207 210 216 218 224 222 223 228 228 232 237 241 243 242 244 249 257 261 264 266 272 276 280
149 98 63 247 243 256 276 237 181 204 224 236 221 239 253 246 237 234 228 223 213 212 208 207 210 211 211 215 213 212 213 213 212 212 212 210 211 217 219 225 229 232 242 257 278 300 308 309 301
135 97 219 244 259 289 248 188 192 203 226 237 219 187 257 248 234 225 225 217 215 212 213 214 212 212 214 216 214 217 218 221 218 215 203 196 196 203 204 205 204 200 209 227 252 282 299 307 300
165 100 246 247 239 271 296 186 275 225 251 226 212 233 255 294 236 221 216 218 219 218 217 219 219 218 217 216 214 218 221 219 217 211 209 211 210 209 204 205 207 202 210 230 269 296 304 308 310
176 60 251 250 182 246 222 225 238 251 245 228 224 241 252 260 232 220 219 219 219 220 219 220 221 222 222 219 217 217 218 217 215 212 212 215 218 223 225 226 235 246 255 269 285 299 308 315 322
160 149 228 218 222 233 267 232 262 256 247 241 248 251 255 261 253 240 238 233 230 228 225 223 223 223 223 223 221 222 221 218 216 214 214 214 214 215 220 227 239 250 268 286 293 302 309 318 324
189 213 221 256 243 272 261 258 252 224 265 244 245 271 261 253 250 248 244 245 254 245 232 231 228 225 225 224 226 224 224 223 220 217 218 217 216 215 220 230 246 260 267 271 281 294 304 313 319
224 246 242 265 271 276 255 276 249 227 261 276 278 278 262 255 251 251 251 251 249 247 243 237 234 230 229 226 227 228 228 226 223 223 223 220 219 220 225 232 243 253 261 272 280 285 293 303 313
228 251 256 264 269 273 279 265 261 267 279 281 276 270 262 258 258 260 258 255 251 248 244 241 238 236 234 231 229 228 228 226 225 224 224 223 222 226 229 235 244 255 264 271 277 282 290 300 306
292 276 276 279 265 257 239 277 261 276 286 284 277 274 267 262 264 265 257 252 248 248 245 243 241 239 237 236 232 231 228 226 225 225 226 226 226 228 233 238 244 248 254 262 270 278 287 296 304
291 316 311 221 256 229 215 292 224 269 276 278 281 283 279 274 269 264 265 260 259 258 252 247 244 241 239 238 235 233 232 227 226 227 227 227 227 229 231 234 240 247 255 262 267 273 282 290 296
342 333 322 307 139 230 164 257 267 271 264 270 277 283 284 286 284 279 271 266 260 256 253 251 246 243 240 239 237 233 232 229 229 228 228 228 228 229 230 234 238 245 248 254 261 273 283 293 297
299 240 224 305 205 152 187 245 265 278 249 270 276 283 283 284 282 276 278 272 265 261 256 251 247 245 243 238 237 235 233 231 231 230 230 230 230 230 232 233 234 239 244 250 257 268 279 288 294
227 225 249 242 288 168 229 249 275 284 275 266 277 283 284 281 281 279 274 275 271 263 259 254 249 244 240 238 235 234 233 232 231 232 232 231 231 231 232 232 234 239 241 247 255 264 275 284 291
188 219 236 253 254 244 245 254 261 268 279 267 266 270 273 277 285 284 279 275 267 263 257 257 251 244 237 233 231 229 230 230 230 230 231 232 232 231 232 232 234 237 240 244 249 259 271 282 290
240 260 265 270 264 229 267 266 267 254 253 262 267 265 268 275 283 286 284 276 271 267 263 257 250 245 239 234 233 231 230 230 233 231 230 230 231 231 232 233 235 236 237 240 245 253 265 278 289
231 227 255 261 303 239 283 274 243 250 251 254 265 262 268 273 278 284 284 282 278 270 265 258 251 245 238 234 229 229 229 230 230 229 228 229 229 231 233 234 234 235 236 238 242 248 256 269 282
266 225 257 264 347 273 8 299 197 242 250 238 250 267 269 277 282 285 285 282 281 285 271 257 252 247 237 231 228 228 230 230 233 234 233 230 229 230 231 232 234 236 237 239 241 244 250 260 272
246 218 230 184 217 327 212 270 177 137 250 255 262 259 268 274 280 283 292 297 291 274 263 256 252 247 237 232 229 228 230 234 238 237 234 233 231 231 232 232 234 234 236 237 239 243 249 254 262
106 79 76 62 121 269 201 208 323 163 217 269 269 277 279 278 283 284 282 295 288 263 247 242 243 241 239 233 228 230 232 234 234 234 234 233 231 232 232 232 233 234 234 236 240 242 246 253 259
133 81 309 313 71 245 147 202 257 288 234 222 267 283 300 304 297 288 299 300 287 260 241 243 244 239 233 231 230 231 232 235 236 238 237 235 232 232 233 232 232 234 235 235 235 238 242 247 253
192 166 180 215 268 280 124 256 277 227 265 271 320 332 340 334 326 311 294 293 282 260 248 246 247 245 237 228 230 235 236 237 239 240 237 236 236 237 238 235 235 236 237 236 235 236 237 240 246
177 189 227 262 178 272 270 274 285 239 264 31 351 357 348 353 360 354 343 312 295 277 263 266 261 260 253 242 235 236 237 238 239 240 242 242 240 239 238 237 237 238 238 237 236 235 236 237 241
182 102 68 329 223 244 250 270 261 278 279 270 267 317 338 16 9 14 15 27 34 14 333 313 289 275 268 254 247 247 244 242 241 242 242 241 241 241 239 237 236 236 237 237 235 233 234 235 238
153 241 214 190 212 257 261 251 269 273 255 236 272 278 301 300 307 305 304 318 314 316 311 305 295 288 279 264 257 256 251 247 243 243 243 244 242 241 241 238 235 233 234 235 234 234 233 235 238
158 241 241 238 251 242 257 254 270 278 271 247 271 288 294 300 298 291 298 298 291 294 297 297 290 285 289 277 260 260 256 250 247 246 244 243 243 242 241 238 235 233 234 234 234 232 232 233 236
Wind_Speed_850mb
10 8 5 4 7 9 7 11 5 5 3 5 12 10 16 8 12 10 6 22 21 33 35 33 32 30 29 32 31 27 26 25 24 20 23 21 19 19 19 17 19 18 17 17 12 7 10 10 10
12 7 3 3 8 4 10 9 12 11 4 13 11 7 4 11 14 7 15 23 22 26 33 34 33 32 34 33 31 31 29 28 28 29 26 24 23 22 19 18 17 18 19 20 16 13 13 13 13
11 7 3 8 6 9 9 10 11 5 11 9 6 11 7 8 17 12 20 24 25 28 34 36 35 35 35 34 33 32 33 33 30 24 24 25 22 20 19 18 19 20 22 22 20 19 19 20 20
9 5 6 7 12 14 14 13 11 6 8 15 10 9 10 18 7 15 25 23 29 32 38 38 38 38 37 36 34 34 32 32 27 22 19 19 16 15 15 15 16 17 18 19 19 19 20 21 22
11 3 4 2 11 13 11 16 20 11 5 12 16 9 11 15 30 19 16 21 27 34 40 41 40 39 38 38 36 32 32 25 22 18 17 16 15 13 13 12 13 14 15 15 14 14 13 13 15
4 4 4 7 10 11 14 16 17 11 13 7 10 7 13 21 26 25 23 22 27 34 41 44 42 40 39 38 35 35 30 27 25 24 21 18 14 12 10 8 8 7 7 6 5 5 5 6 9
8 7 8 7 10 11 9 13 11 12 10 17 10 7 12 19 25 26 25 27 30 36 44 47 46 44 42 40 37 34 30 28 25 23 22 20 18 16 13 12 11 9 7 5 4 4 6 8 10
2 8 4 9 7 11 6 13 6 21 19 13 21 12 12 7 24 30 31 31 35 40 46 49 49 49 47 45 43 38 34 32 29 26 23 19 16 14 13 12 11 9 7 5 5 7 9 10 13
5 5 6 10 10 9 3 6 8 11 15 17 20 38 27 21 21 35 40 42 45 47 50 54 55 53 51 50 48 45 41 38 35 33 30 25 20 17 14 12 10 9 9 8 8 9 12 14 17
8 6 16 13 8 7 7 11 25 10 17 19 35 46 47 45 40 43 48 49 50 52 52 57 60 59 58 57 55 51 47 44 41 40 36 31 26 22 18 15 14 14 14 14 15 15 16 17 18
12 13 11 19 28 19 10 12 21 11 16 42 45 54 52 55 55 56 57 58 55 52 57 58 60 62 64 64 62 58 54 50 47 45 42 37 32 26 22 19 18 17 18 17 19 20 21 21 23
7 28 25 16 20 14 10 16 12 30 75 66 57 48 49 54 61 66 67 64 60 59 59 62 62 64 66 67 68 64 62 57 54 52 48 43 37 32 28 25 23 22 22 22 21 21 23 25 27
10 11 33 51 44 45 40 44 25 49 92 77 67 64 64 62 65 66 65 65 65 68 64 65 66 68 69 71 71 70 67 62 58 58 54 49 44 38 33 29 27 26 25 25 26 25 24 23 25
7 19 31 29 35 31 15 38 5 74 70 63 49 48 57 69 73 71 72 74 74 72 72 69 71 71 73 75 75 76 72 66 65 63 59 54 48 43 38 35 32 31 29 28 28 28 27 27 29
13 16 18 16 22 18 26 24 23 85 66 61 61 60 58 59 58 71 76 81 79 77 75 75 75 77 79 79 79 78 76 73 72 69 65 60 54 49 45 41 38 35 32 31 30 28 29 29 29
8 1 10 2 14 7 24 27 37 50 46 57 58 58 58 62 68 73 75 80 80 81 82 78 79 83 86 85 83 81 81 78 76 74 71 66 60 56 52 48 44 42 38 35 34 31 31 32 32
5 11 16 24 31 10 16 19 24 16 25 47 54 65 77 88 87 83 79 83 83 79 80 81 83 86 88 90 88 84 82 81 80 77 74 69 65 61 57 55 51 46 42 37 34 32 32 33 34
17 11 12 13 11 8 11 29 24 70 26 55 75 88 100 104 109 96 90 87 87 83 81 79 84 88 91 93 90 88 84 83 81 80 79 74 71 66 64 60 56 52 46 41 38 35 34 35 35
8 13 16 18 16 5 19 30 33 52 58 53 70 88 100 106 118 111 101 91 90 80 72 83 89 92 95 99 97 96 96 90 87 85 82 79 76 72 69 65 62 57 51 45 42 38 35 34 34
18 31 33 34 37 10 33 45 33 24 40 78 79 76 87 96 99 96 86 78 77 75 72 75 84 92 96 99 95 99 95 94 88 87 86 84 81 77 73 70 66 61 56 52 46 40 35 34 31
20 16 35 34 12 11 20 38 29 25 49 74 92 85 87 96 99 96 86 75 70 69 65 67 74 82 89 95 99 99 96 94 93 94 92 90 86 81 77 72 69 65 61 57 51 44 37 32 29
39 26 29 21 5 16 6 35 12 17 30 21 59 78 82 89 83 82 81 75 63 59 59 66 73 78 83 92 97 100 101 100 101 92 89 91 89 84 79 75 71 68 65 62 55 48 40 33 29
22 7 12 4 7 10 6 8 2 9 14 28 27 60 69 68 70 65 76 67 57 51 51 57 65 73 77 88 94 95 99 96 89 89 92 91 90 86 83 79 76 73 69 64 58 51 43 36 32
3 6 5 7 6 15 23 18 17 11 15 10 13 50 62 57 57 68 62 62 45 44 49 52 60 65 71 81 89 95 95 93 93 95 94 92 91 90 87 84 81 77 74 68 62 55 49 41 36
8 9 8 7 2 22 13 11 37 27 16 16 27 50 58 68 71 69 69 66 46 49 48 53 58 63 67 75 85 92 91 90 92 94 92 87 90 95 93 90 86 82 78 73 68 63 55 47 42
15 20 12 14 20 37 15 21 37 17 19 22 19 26 44 55 63 49 40 49 46 43 47 47 52 58 66 72 78 84 88 93 96 99 97 91 86 87 89 89 84 82 80 77 73 67 61 54 49
8 11 14 9 2 4 26 35 33 12 13 5 12 26 50 43 42 39 30 33 33 31 34 38 44 48 61 73 76 81 89 96 100 100 98 94 89 85 83 85 83 82 82 81 77 73 68 61 54
14 1 4 3 8 20 17 29 32 34 33 19 13 14 32 32 31 41 38 27 19 18 20 27 41 47 56 73 80 85 94 100 99 99 101 99 92 90 87 85 83 85 85 84 82 77 72 68 62
1 8 10 2 11 31 36 25 54 41 17 18 14 23 26 43 74 66 29 23 22 36 47 52 58 58 64 71 76 91 100 102 104 101 102 102 97 93 92 89 86 86 88 88 85 82 77 73 66
3 11 15 19 24 23 32 35 45 59 26 19 45 66 78 88 64 54 73 71 69 76 64 73 63 63 78 89 91 98 102 105 104 105 108 107 105 99 95 92 90 88 91 91 90 87 84 79 73
Wind_Direction_850mb
205 221 263 300 43 60 267 261 250 245 242 194 154 169 195 186 168 209 195 177 189 186 191 190 193 198 196 201 203 196 202 207 206 195 212 210 214 205 208 201 204 202 212 222 233 247 228 222 223
205 210 235 93 90 39 271 258 236 224 226 151 148 148 217 237 225 241 181 182 187 193 194 193 191 194 195 200 204 204 204 201 213 213 219 216 218 229 225 217 219 223 227 233 241 245 253 257 256
193 196 214 97 121 193 224 231 239 245 189 184 213 223 238 239 234 225 209 201 202 202 199 196 196 196 200 203 206 208 212 220 224 227 220 228 235 239 239 235 233 240 251 263 266 266 264 264 265
175 179 60 99 234 252 214 253 216 185 214 227 226 250 242 225 231 225 229 213 214 204 200 201 199 200 204 207 212 212 217 225 233 232 233 236 237 238 237 239 243 251 259 263 268 271 271 269 267
179 156 63 270 256 265 247 255 202 184 215 223 199 256 244 240 232 234 213 218 213 208 204 204 207 207 207 210 216 218 224 222 223 228 228 232 237 241 243 242 244 249 257 261 264 266 272 276 280
149 98 63 247 243 256 276 237 181 204 224 236 221 239 253 246 237 234 228 223 213 212 208 207 210 211 211 215 213 212 213 213 212 212 212 210 211 217 219 225 229 232 242 257 278 300 308 309 301
135 97 219 244 259 289 248 188 192 203 226 237 219 187 257 248 234 225 225 217 215 212 213 214 212 212 214 216 214 217 218 221 218 215 203 196 196 203 204 205 204 200 209 227 252 282 299 307 300
165 100 246 247 239 271 296 186 275 225 251 226 212 233 255 294 236 221 216 218 219 218 217 219 219 218 217 216 214 218 221 219 217 211 209 211 210 209 204 205 207 202 210 230 269 296 304 308 310
176 60 251 250 182 246 222 225 238 251 245 228 224 241 252 260 232 220 219 219 219 220 219 220 221 222 222 219 217 217 218 217 215 212 212 215 218 223 225 226 235 246 255 269 285 299 308 315 322
160 149 228 218 222 233 267 232 262 256 247 241 248 251 255 261 253 240 238 233 230 228 225 223 223 223 223 223 221 222 221 218 216 214 214 214 214 215 220 227 239 250 268 286 293 302 309 318 324
189 213 221 256 243 272 261 258 252 224 265 244 245 271 261 253 250 248 244 245 254 245 232 231 228 225 225 224 226 224 224 223 220 217 218 217 216 215 220 230 246 260 267 271 281 294 304 313 319
224 246 242 265 271 276 255 276 249 227 261 276 278 278 262 255 251 251 251 251 249 247 243 237 234 230 229 226 227 228 228 226 223 223 223 220 219 220 225 232 243 253 261 272 280 285 293 303 313
228 251 256 264 269 273 279 265 261 267 279 281 276 270 262 258 258 260 258 255 251 248 244 241 238 236 234 231 229 228 228 226 225 224 224 223 222 226 229 235 244 255 264 271 277 282 290 300 306
292 276 276 279 265 257 239 277 261 276 286 284 277 274 267 262 264 265 257 252 248 248 245 243 241 239 237 236 232 231 228 226 225 225 226 226 226 228 233 238 244 248 254 262 270 278 287 296 304
291 316 311 221 256 229 215 292 224 269 276 278 281 283 279 274 269 264 265 260 259 258 252 247 244 241 239 238 235 233 232 227 226 227 227 227 227 229 231 234 240 247 255 262 267 273 282 290 296
342 333 322 307 139 230 164 257 267 271 264 270 277 283 284 286 284 279 271 266 260 256 253 251 246 243 240 239 237 233 232 229 229 228 228 228 228 229 230 234 238 245 248 254 261 273 283 293 297
299 240 224 305 205 152 187 245 265 278 249 270 276 283 283 284 282 276 278 272 265 261 256 251 247 245 243 238 237 235 233 231 231 230 230 230 230 230 232 233 234 239 244 250 257 268 279 288 294
227 225 249 242 288 168 229 249 275 284 275 266 277 283 284 281 281 279 274 275 271 263 259 254 249 244 240 238 235 234 233 232 231 232 232 231 231 231 232 232 234 239 241 247 255 264 275 284 291
188 219 236 253 254 244 245 254 261 268 279 267 266 270 273 277 285 284 279 275 267 263 257 257 251 244 237 233 231 229 230 230 230 230 231 232 232 231 232 232 234 237 240 244 249 259 271 282 290
240 260 265 270 264 229 267 266 267 254 253 262 267 265 268 275 283 286 284 276 271 267 263 257 250 245 239 234 233 231 230 230 233 231 230 230 231 231 232 233 235 236 237 240 245 253 265 278 289
231 227 255 261 303 239 283 274 243 250 251 254 265 262 268 273 278 284 284 282 278 270 265 258 251 245 238 234 229 229 229 230 230 229 228 229 229 231 233 234 234 235 236 238 242 248 256 269 282
266 225 257 264 347 273 8 299 197 242 250 238 250 267 269 277 282 285 285 282 281 285 271 257 252 247 237 231 228 228 230 230 233 234 233 230 229 230 231 232 234 236 237 239 241 244 250 260 272
246 218 230 184 217 327 212 270 177 137 250 255 262 259 268 274 280 283 292 297 291 274 263 256 252 247 237 232 229 228 230 234 238 237 234 233 231 231 232 232 234 234 236 237 239 243 249 254 262
106 79 76 62 121 269 201 208 323 163 217 269 269 277 279 278 283 284 282 295 288 263 247 242 243 241 239 233 228 230 232 234 234 234 234 233 231 232 232 232 233 234 234 236 240 242 246 253 259
133 81 309 313 71 245 147 202 257 288 234 222 267 283 300 304 297 288 299 300 287 260 241 243 244 239 233 231 230 231 232 235 236 238 237 235 232 232 233 232 232 234 235 235 235 238 242 247 253
192 166 180 215 268 280 124 256 277 227 265 271 320 332 340 334 326 311 294 293 282 260 248 246 247 245 237 228 230 235 236 237 239 240 237 236 236 237 238 235 235 236 237 236 235 236 237 240 246
177 189 227 262 178 272 270 274 285 239 264 31 351 357 348 353 360 354 343 312 295 277 263 266 261 260 253 242 235 236 237 238 239 240 242 242 240 239 238 237 237 238 238 237 236 235 236 237 241
182 102 68 329 223 244 250 270 261 278 279 270 267 317 338 16 9 14 15 27 34 14 333 313 289 275 268 254 247 247 244 242 241 242 242 241 241 241 239 237 236 236 237 237 235 233 234 235 238
153 241 214 190 212 257 261 251 269 273 255 236 272 278 301 300 307 305 304 318 314 316 311 305 295 288 279 264 257 256 251 247 243 243 243 244 242 241 241 238 235 233 234 235 234 234 233 235 238
158 241 241 238 251 242 257 254 270 278 271 247 271 288 294 300 298 291 298 298 291 294 297 297 290 285 289 277 260 260 256 250 247 246 244 243 243 242 241 238 235 233 234 234 234 232 232 233 236